Starlink 4644

operational
NORAD ID: 53719 Int'l Des: 2022-107 Owner: SPXS Country: US Constellation: starlink
LEOCIRCULAR

About Starlink 4644

Description loading...

Live Position

Loading 3D Globe...

Upcoming Passes

Altitude History

Altitude vs Time

uPlot chart will show altitude changes over time

Two-Line Element Set

1 53719U 22107V 26035.20038990 -.00000470 00000-0 -11442-4 0 9993
2 53719 53.2186 14.0837 0001490 90.9982 269.1181 15.08835908189784
Epoch: Feb 4, 2026 • Age: 17 hours

Current Status

Altitude 554.7 km
Velocity 7.58 km/s
Sub-Earth Point -42.14°S, 137.2°W
Launch Date Sep 5, 2022
Age 3.4 years
Type internet

Technical Details

Classification Payload
Mass 305.00 kg
Dry Mass 290.00 kg
Total Mass 305.00 kg
Length 0.20 m
Diameter 2.80 m
Span 9.00 m
Shape Box + pan
Manufacturer SPXS
Bus Type Starlink
Phase Status In Orbit
Owner/State SPXS/US

Large Constellations

Loading constellations...